When you browse on this site, cookies collect data to enhance your experience and personalize the content and advertising you see.
Visit our Privacy Policy to learn more. By continuing to use the site, you agree to this use of cookies and data.
  • In Spain
  • List of Countries
  • For 7 days
  • Water Temperature
  • Satellite Maps
  • Weather Map
  • Weather Widgets
  • user-avatar
    Login

    Hourly Weather Shkoder

    Today, 21 March, Thursday

    Time Temperature Precipitation Wind Pressure Humidity
    00:00 +9°C° 0 mm 5 mps 747 mmHg 63%
    01:00 +8°C° 0 mm 5 mps 747 mmHg 63%
    02:00 +8°C° 0 mm 5 mps 747 mmHg 64%
    03:00 +8°C° 0 mm 5 mps 747 mmHg 64%
    04:00 +8°C° 0 mm 5 mps 748 mmHg 64%
    05:00 +8°C° 0 mm 5 mps 748 mmHg 63%
    06:00 +8°C° 0 mm 5 mps 748 mmHg 63%
    07:00 +9°C° 0 mm 5 mps 748 mmHg 62%
    08:00 +10°C° 0 mm 5 mps 748 mmHg 59%
    09:00 +13°C° 0 mm 5 mps 748 mmHg 55%
    10:00 +14°C° 0 mm 5 mps 748 mmHg 52%
    11:00 +15°C° 0 mm 5 mps 748 mmHg 50%
    12:00 +16°C° 0 mm 5 mps 748 mmHg 48%
    13:00 +18°C° 0 mm 4 mps 747 mmHg 47%
    14:00 +18°C° 0 mm 4 mps 747 mmHg 47%
    15:00 +17°C° 0 mm 4 mps 747 mmHg 48%
    16:00 +17°C° 0 mm 4 mps 746 mmHg 49%
    17:00 +15°C° 0 mm 4 mps 747 mmHg 53%
    18:00 +13°C° 0 mm 4 mps 747 mmHg 57%
    19:00 +12°C° 0 mm 4 mps 747 mmHg 62%
    20:00 +11°C° 0 mm 4 mps 748 mmHg 63%
    21:00 +11°C° 0 mm 4 mps 748 mmHg 65%
    22:00 +10°C° 0 mm 4 mps 748 mmHg 67%
    23:00 +10°C° 0 mm 4 mps 749 mmHg 67%

    Tomorrow, 22 March, Friday

    Time Temperature Precipitation Wind Pressure Humidity
    00:00 +8°C° 0 mm 4 mps 749 mmHg 68%
    01:00 +8°C° 0 mm 4 mps 749 mmHg 68%
    02:00 +9°C° 0 mm 3 mps 749 mmHg 68%
    03:00 +8°C° 0 mm 3 mps 748 mmHg 68%
    04:00 +8°C° 0 mm 3 mps 748 mmHg 68%
    05:00 +9°C° 0 mm 3 mps 748 mmHg 67%
    06:00 +8°C° 0 mm 4 mps 748 mmHg 66%
    07:00 +8°C° 0 mm 4 mps 748 mmHg 64%
    08:00 +11°C° 0 mm 3 mps 748 mmHg 58%
    09:00 +13°C° 0 mm 3 mps 748 mmHg 52%
    10:00 +16°C° 0 mm 3 mps 748 mmHg 45%
    11:00 +17°C° 0 mm 3 mps 747 mmHg 43%
    12:00 +18°C° 0 mm 3 mps 747 mmHg 40%
    13:00 +19°C° 0 mm 3 mps 747 mmHg 37%
    14:00 +19°C° 0 mm 2 mps 746 mmHg 38%
    15:00 +19°C° 0 mm 2 mps 746 mmHg 38%
    16:00 +19°C° 0 mm 2 mps 745 mmHg 38%
    17:00 +17°C° 0 mm 3 mps 746 mmHg 43%
    18:00 +14°C° 0 mm 3 mps 746 mmHg 47%
    19:00 +13°C° 0 mm 3 mps 746 mmHg 52%
    20:00 +12°C° 0 mm 3 mps 746 mmHg 53%
    21:00 +12°C° 0 mm 3 mps 746 mmHg 53%
    22:00 +11°C° 0 mm 3 mps 747 mmHg 54%
    23:00 +11°C° 0 mm 3 mps 747 mmHg 55%

    Day after tomorrow, 23 March, Saturday

    Time Temperature Precipitation Wind Pressure Humidity
    00:00 +10°C° 0 mm 3 mps 746 mmHg 56%
    01:00 +10°C° 0 mm 3 mps 746 mmHg 57%
    02:00 +10°C° 0 mm 3 mps 746 mmHg 57%
    03:00 +9°C° 0 mm 3 mps 746 mmHg 57%
    04:00 +9°C° 0 mm 3 mps 746 mmHg 57%
    05:00 +10°C° 0 mm 3 mps 746 mmHg 57%
    06:00 +10°C° 0 mm 3 mps 746 mmHg 58%
    07:00 +10°C° 0 mm 3 mps 746 mmHg 58%
    08:00 +12°C° 0 mm 3 mps 745 mmHg 53%
    09:00 +14°C° 0 mm 3 mps 745 mmHg 48%
    10:00 +18°C° 0 mm 3 mps 745 mmHg 43%
    11:00 +18°C° 0 mm 3 mps 745 mmHg 41%
    12:00 +19°C° 0 mm 2 mps 744 mmHg 39%
    13:00 +20°C° 0 mm 2 mps 744 mmHg 37%
    14:00 +20°C° 0 mm 2 mps 744 mmHg 38%
    15:00 +20°C° 0 mm 2 mps 743 mmHg 39%
    16:00 +20°C° 0 mm 2 mps 743 mmHg 41%
    17:00 +18°C° 0 mm 2 mps 743 mmHg 46%
    18:00 +17°C° 0 mm 2 mps 744 mmHg 52%
    19:00 +15°C° 0 mm 2 mps 744 mmHg 58%
    20:00 +14°C° 0 mm 2 mps 744 mmHg 59%
    21:00 +13°C° 0 mm 3 mps 744 mmHg 61%
    22:00 +12°C° 0 mm 3 mps 745 mmHg 63%
    23:00 +12°C° 0 mm 3 mps 745 mmHg 65%

    24 March, Sunday

    Time Temperature Precipitation Wind Pressure Humidity
    00:00 +12°C° 0 mm 3 mps 745 mmHg 68%
    01:00 +11°C° 0 mm 3 mps 745 mmHg 70%
    02:00 +11°C° 0 mm 3 mps 745 mmHg 72%
    03:00 +10°C° 0 mm 3 mps 744 mmHg 73%
    04:00 +10°C° 0 mm 3 mps 744 mmHg 74%
    05:00 +11°C° 0 mm 3 mps 744 mmHg 72%
    06:00 +11°C° 0 mm 3 mps 745 mmHg 69%
    07:00 +11°C° 0 mm 3 mps 745 mmHg 66%
    08:00 +13°C° 0 mm 3 mps 745 mmHg 56%
    09:00 +17°C° 0 mm 2 mps 744 mmHg 46%
    10:00 +19°C° 0 mm 2 mps 744 mmHg 36%
    11:00 +20°C° 0 mm 2 mps 744 mmHg 33%
    12:00 +20°C° 0 mm 2 mps 744 mmHg 30%
    13:00 +22°C° 0 mm 1 mps 743 mmHg 27%
    14:00 +21°C° 0 mm 2 mps 743 mmHg 30%
    15:00 +21°C° 0 mm 2 mps 743 mmHg 33%
    16:00 +20°C° 0 mm 2 mps 742 mmHg 35%
    17:00 +18°C° 0 mm 2 mps 742 mmHg 42%
    18:00 +18°C° 0 mm 1 mps 742 mmHg 48%
    19:00 +15°C° 0 mm 1 mps 742 mmHg 55%
    20:00 +14°C° 0 mm 1 mps 743 mmHg 54%
    21:00 +14°C° 0 mm 1 mps 743 mmHg 52%
    22:00 +14°C° 0 mm 1 mps 743 mmHg 51%
    23:00 +13°C° 0 mm 1 mps 743 mmHg 50%

    25 March, Monday

    Time Temperature Precipitation Wind Pressure Humidity
    00:00 +13°C° 0 mm 1 mps 742 mmHg 49%
    01:00 +12°C° 0 mm 1 mps 742 mmHg 49%
    02:00 +12°C° 0 mm 1 mps 742 mmHg 49%
    03:00 +12°C° 0 mm 1 mps 742 mmHg 50%
    04:00 +11°C° 0 mm 1 mps 742 mmHg 50%
    05:00 +12°C° 0 mm 1 mps 742 mmHg 51%
    06:00 +12°C° 0 mm 1 mps 742 mmHg 52%
    07:00 +13°C° 0 mm 1 mps 742 mmHg 52%
    08:00 +15°C° 0 mm 1 mps 742 mmHg 48%
    09:00 +18°C° 0 mm 1 mps 742 mmHg 43%
    10:00 +19°C° 0 mm 1 mps 742 mmHg 39%
    11:00 +20°C° 0 mm 1 mps 741 mmHg 38%
    12:00 +19°C° 0 mm 2 mps 741 mmHg 38%
    13:00 +20°C° 0 mm 2 mps 741 mmHg 37%
    14:00 +19°C° 0 mm 2 mps 740 mmHg 41%
    15:00 +19°C° 0 mm 2 mps 740 mmHg 44%
    16:00 +18°C° 0 mm 2 mps 740 mmHg 48%
    17:00 +18°C° 0 mm 1 mps 740 mmHg 55%
    18:00 +15°C° 0 mm 1 mps 740 mmHg 63%
    19:00 +13°C° 0 mm 0 mps 741 mmHg 70%
    20:00 +14°C° 0 mm 1 mps 741 mmHg 69%
    21:00 +13°C° 0 mm 1 mps 741 mmHg 68%
    22:00 +13°C° 0 mm 2 mps 741 mmHg 68%
    23:00 +13°C° 0 mm 2 mps 741 mmHg 69%

    26 March, Tuesday

    Time Temperature Precipitation Wind Pressure Humidity
    00:00 +11°C° 0 mm 3 mps 741 mmHg 70%
    01:00 +11°C° 0 mm 3 mps 741 mmHg 71%
    02:00 +11°C° 0 mm 3 mps 741 mmHg 69%
    03:00 +10°C° 0 mm 4 mps 741 mmHg 67%
    04:00 +10°C° 0 mm 4 mps 741 mmHg 64%
    05:00 +10°C° 0.1 mm 4 mps 741 mmHg 62%
    06:00 +10°C° 0.1 mm 4 mps 741 mmHg 61%
    07:00 +9°C° 0.1 mm 5 mps 741 mmHg 59%
    08:00 +10°C° 0.1 mm 4 mps 741 mmHg 54%
    09:00 +11°C° 0.1 mm 4 mps 741 mmHg 50%
    10:00 +12°C° 0.1 mm 4 mps 741 mmHg 45%
    11:00 +13°C° 0 mm 3 mps 741 mmHg 42%
    12:00 +14°C° 0 mm 3 mps 740 mmHg 38%
    13:00 +15°C° 0 mm 2 mps 740 mmHg 34%
    14:00 +14°C° 0 mm 3 mps 740 mmHg 35%
    15:00 +14°C° 0 mm 3 mps 740 mmHg 35%
    16:00 +14°C° 0 mm 3 mps 739 mmHg 36%
    17:00 +12°C° 0 mm 3 mps 740 mmHg 40%
    18:00 +11°C° 0 mm 3 mps 740 mmHg 45%
    19:00 +9°C° 0 mm 3 mps 741 mmHg 49%
    20:00 +9°C° 0 mm 3 mps 741 mmHg 50%
    21:00 +8°C° 0 mm 3 mps 741 mmHg 52%
    22:00 +7°C° 0 mm 3 mps 742 mmHg 53%
    23:00 +7°C° 0 mm 3 mps 742 mmHg 54%
    Show more